Content
SEND FEEDBACK

Daily
Averages
Monthly
Summary
India

AHMEDABAD, INDIA


Home > Asia > India
Elevation: 180 feet     Latitude: 23 04N     Longitude: 072 38E

WEATHER
 
SELECT A DAY
Number of Records: 210,786;   Date Range: 7/1/96 - 8/31/14
 
SHARE

PRINT THIS DATA

[ ← Previous Day ]
WEATHER ALMANAC - MARCH 5, 2013
[ Next Day → ]
[ °C ]   °F
Weather ElementAverageHighLow
Temperature79.8 °F100.4 °F (2:10 pm)59 °F (6:10 am)
Dewpoint43.4 °F54 °F (8:30 pm)33.8 °F (3:40 pm)
Humidity31.4 %67 % (6:40 am)8 % (2:30 pm)
Barometer29.90 in30.00 in (8:30 am)29.80 in (4:10 pm)
Wind Speed3.7 mph6.9 mph (9:10 am)
Weather ElementAverage
Visibility2.7 mi
Wind DirectionENE (69.8 °)

Weather ElementTotal
Precipitation---
Cooling Degree Days14.7 (Base 65)
Growing Degree Days29.7 (Base 50)
Averaged from 48 records on March 5, 2013
WEATHER CONDITIONS BREAKOUT
WIND DIRECTION BREAKOUT
WEATHER BY HOUR - MARCH 5, 2013
[ °C ]   °F
Local TimeTemperatureDewpointHumidityBarometerVisibilityWind DirectionWind SpeedGust SpeedPrecipitationEventsConditions
12:40 AM68.0 °F50.0 °F52 %29.92 in2.5 miNE (40°)3.5 mphSmoke
1:10 AM68.0 °F46.4 °F46 %29.92 in2.5 miNE (40°)3.5 mphSmoke
1:40 AM66.2 °F48.2 °F52 %29.89 in2.5 miNNE (30°)3.5 mphSmoke
2:10 AM66.2 °F44.6 °F46 %29.89 in2.5 miNE (40°)3.5 mphSmoke
2:30 AM66.0 °F47.0 °F39 %29.92 in2.0 miNorth2.3 mphSmoke
2:40 AM66.2 °F42.8 °F43 %29.89 in2.5 miEast (80°)4.6 mphSmoke
3:10 AM68.0 °F41.0 °F37 %29.89 in2.5 miENE (60°)4.6 mphSmoke
3:40 AM66.2 °F41.0 °F40 %29.86 in2.5 miNE (50°)3.5 mphSmoke
4:10 AM64.4 °F42.8 °F45 %29.86 in2.5 miNE (50°)3.5 mphSmoke
4:40 AM64.4 °F48.2 °F56 %29.89 in2.5 miVariable2.3 mphSmoke
5:10 AM60.8 °F46.4 °F59 %29.89 in2.5 miVariable2.3 mphHaze
5:30 AM66.0 °F48.0 °F41 %29.92 in2.0 miNorth2.3 mphSmoke
5:40 AM60.8 °F46.4 °F59 %29.89 in2.5 miVariable3.5 mphHaze
6:10 AM59.0 °F46.4 °F63 %29.92 in2.5 miNNE (20°)3.5 mphHaze
6:40 AM59.0 °F48.2 °F67 %29.92 in2.2 miVariable2.3 mphHaze
7:10 AM59.0 °F46.4 °F63 %29.95 in2.2 miVariable3.5 mphHaze
8:30 AM72.0 °F43.0 °F25 %30.00 in2.0 miCalm
9:10 AM75.2 °F42.8 °F31 %29.98 in2.2 miENE (60°)6.9 mphSmoke
9:40 AM80.6 °F41.0 °F24 %29.98 in2.5 miENE (70°)5.8 mphSmoke
11:10 AM89.6 °F41.0 °F18 %29.95 in3.7 miEast (100°)5.8 mph
11:30 AM90.0 °F47.0 °F14 %30.00 in2.0 miEast (90°)2.3 mph
11:40 AM95.0 °F41.0 °F15 %29.95 in3.7 miESE (110°)4.6 mph
12:10 PM96.8 °F44.6 °F17 %29.95 in3.7 miESE (110°)4.6 mph
12:40 PM96.8 °F42.8 °F16 %29.92 in3.7 miSE (130°)4.6 mph
1:40 PM98.6 °F37.4 °F12 %29.89 in3.7 miEast (100°)4.6 mph
2:10 PM100.4 °F39.2 °F12 %29.86 in3.7 miEast (90°)3.5 mph
2:30 PM97.0 °F42.0 °F8 %29.90 in2.0 miNNW (340°)3.5 mph
2:40 PM100.4 °F39.2 °F12 %29.83 in3.7 miNNE (30°)3.5 mph
3:10 PM100.4 °F39.2 °F12 %29.83 in3.7 miNorth (10°)4.6 mph
3:40 PM100.4 °F33.8 °F10 %29.83 in3.7 miNorth (10°)6.9 mph
4:10 PM100.4 °F33.8 °F10 %29.80 in3.7 miNNW (340°)5.8 mph
4:40 PM100.4 °F33.8 °F10 %29.80 in3.7 miNNW (340°)5.8 mph
5:10 PM100.4 °F33.8 °F10 %29.83 in3.7 miNNW (340°)5.8 mph
5:30 PM96.0 °F42.0 °F8 %29.86 in2.0 miNorth3.5 mph
5:40 PM98.6 °F37.4 °F12 %29.83 in3.7 miNE (40°)4.6 mph
6:40 PM93.2 °F39.2 °F15 %29.83 in2.5 miNNE (30°)2.3 mphSmoke
7:10 PM87.8 °F39.2 °F18 %29.86 in2.5 miNNE (30°)3.5 mphSmoke
7:40 PM86.0 °F41.0 °F20 %29.86 in2.5 miNE (40°)3.5 mphSmoke
8:10 PM82.4 °F46.4 °F28 %29.89 in2.5 miNE (50°)3.5 mphSmoke
8:30 PM76.0 °F54.0 °F36 %29.91 in2.0 miCalm
8:40 PM80.6 °F42.8 °F26 %29.89 in2.5 miEast (80°)3.5 mphSmoke
9:10 PM78.8 °F46.4 °F32 %29.89 in2.5 miNNE (30°)3.5 mphSmoke
9:40 PM75.2 °F44.6 °F34 %29.92 inNorthSmoke
10:10 PM73.4 °F44.6 °F36 %29.92 in2.5 miENE (60°)3.5 mphSmoke
10:40 PM73.4 °F46.4 °F38 %29.92 in2.5 miNE (40°)3.5 mphSmoke
11:10 PM71.6 °F48.2 °F43 %29.92 in2.5 miNE (40°)4.6 mphSmoke
11:30 PM67.0 °F50.0 °F44 %29.95 in2.0 miCalmSmoke
11:40 PM69.8 °F51.8 °F53 %29.92 in2.5 miNNE (20°)4.6 mphSmoke
Hourly data recorded from VAAH, located miles away from Ahmedabad, India







STORIES FROM OUR PARTNERS